This is the latest recevied weather packets stored in our database for station/object K4IR. If no packets are shown the sender has not sent any weather packets the latest 10 day(s).
| Time | Temp. | Humidity | Pressure | Rain* | Wind** | Luminosity | Snow |
|---|---|---|---|---|---|---|---|
| 1778078120 | 24.44° C | 72% | 1016.9 hPa | 0 mm | - | 131 W/m² | - |
| 1778077516 | 23.89° C | 74% | 1016.4 hPa | 0 mm | - | 115 W/m² | - |
| 1778076911 | 23.89° C | 73% | 1016.7 hPa | 0 mm | - | 115 W/m² | - |
| 1778076306 | 23.33° C | 76% | 1016.9 hPa | 0 mm | - | 160 W/m² | - |
| 1778075706 | 23.89° C | 76% | 1016.9 hPa | 0 mm | - | 182 W/m² | - |
| 1778075103 | 23.89° C | 75% | 1016.8 hPa | 0 mm | - | 89 W/m² | - |
| 1778074503 | 23.89° C | 75% | 1016.8 hPa | 0 mm | - | 139 W/m² | - |
| 1778073903 | 23.33° C | 77% | 1016.5 hPa | 0 mm | - | 139 W/m² | - |
| 1778073297 | 22.78° C | 78% | 1016.4 hPa | 0 mm | - | 63 W/m² | - |
| 1778072696 | 23.33° C | 79% | 1016.5 hPa | 0 mm | - | 168 W/m² | - |
| 1778072092 | 22.22° C | 81% | 1016.5 hPa | 0 mm | - | 294 W/m² | - |
| 1778071487 | 21.67° C | 89% | 1016.5 hPa | 0 mm | - | 228 W/m² | - |
| 1778070883 | 20.56° C | 96% | 1016.5 hPa | 0 mm | - | 197 W/m² | - |
| 1778070283 | 20° C | 98% | 1016.4 hPa | 0 mm | - | 152 W/m² | - |
| 1778069677 | 18.33° C | 99% | 1016.3 hPa | 0 mm | - | 121 W/m² | - |
| 1778069072 | 16.67° C | 99% | 1016.3 hPa | 0 mm | - | 60 W/m² | - |
| 1778068467 | 15.56° C | 99% | 1016.2 hPa | 0 mm | - | 46 W/m² | - |
| 1778067862 | 15° C | 99% | 1016.4 hPa | 0 mm | - | 49 W/m² | - |
| 1778067258 | 14.44° C | 99% | 1016.2 hPa | 0 mm | - | 24 W/m² | - |
| 1778066659 | 13.89° C | 99% | 1015.9 hPa | 0 mm | - | 47 W/m² | - |
| 1778066053 | 13.89° C | 99% | 1015.7 hPa | 0 mm | - | 21 W/m² | - |
| 1778065448 | 13.33° C | 99% | 1015.6 hPa | 0 mm | - | 27 W/m² | - |
| 1778064847 | 12.78° C | 99% | 1015.8 hPa | 0 mm | - | 20 W/m² | - |
| 1778064242 | 12.78° C | 99% | 1016 hPa | 0 mm | - | 10 W/m² | - |
| 1778063637 | 12.22° C | 99% | 1016.1 hPa | 0 mm | - | 6 W/m² | - |
* Rain latest hour (hover to see other rain measurements)
** Current wind speed in m/s (hover to see current wind gust speed)